McAllen, TX

10:15 AM CDT on March 30, 2017 (GMT -0500)
McAllen Miller International

Weather History for KMFE - April, 2014

Change the Weather History Date:

Tuesday, April 1, 2014

  Actual Average Record
Temperature  
Mean Temperature 77 °F 74 °F  
Max Temperature 83 °F 85 °F 100 °F (1970)
Min Temperature 71 °F 63 °F 46 °F (1962)
Degree Days  
Heating Degree Days 0 1  
Month to date heating degree days 0 1  
Since 1 July heating degree days 874 572  
Cooling Degree Days 12 10  
Month to date cooling degree days 12 10  
Year to date cooling degree days 276 387  
Growing Degree Days 26 (Base 50)    
Moisture  
Dew Point 70 °F    
Average Humidity 83    
Maximum Humidity 97    
Minimum Humidity 69    
Precipitation  
Precipitation 0.00 in 0.03 in 1.42 in (1992)
Month to date precipitation 0.00 0.03  
Year to date precipitation 2.05 3.22  
Sea Level Pressure  
Sea Level Pressure 29.89 in    
Wind  
Wind Speed 14 mph (SE)    
Max Wind Speed 23 mph    
Max Gust Speed 29 mph    
Visibility 10 miles    
Events      
T = Trace of Precipitation, MM = Missing Value Source: NWS Daily Summary

Daily Weather History Graph

Daily Weather History Graph

Search for Another Location

Airport or City:

Trip Planner

Search our weather history database for the weather conditions in past years. The results will help you decide how hot, cold, wet, or windy it might be!

Date:

Astronomy

Apr. 01, 2014 Rise Set
Actual Time 7:23 AM CDT 7:49 PM CDT
Civil Twilight 7:00 AM CDT 8:13 PM CDT
Nautical Twilight 6:33 AM CDT 8:40 PM CDT
Astronomical Twilight 6:06 AM CDT 9:07 PM CDT
Moon 8:39 AM CDT (4/1) 9:59 PM CDT (4/1)
Length of Visible Light 13h 12m
Length of Day
12h 25m
Waxing Crescent, 5% of the Moon is Illuminated
Apr 1
Waxing Crescent
Apr 7
First Quarter
Apr 15
Full
Apr 22
Last Quarter
Apr 29
New

Hourly Weather History & Observations

Time (CDT) Temp. Heat Index Dew Point Humidity Pressure Visibility Wind Dir Wind Speed Gust Speed Precip Events Conditions
12:08 AM 69.8 °F - 68.0 °F 94% 29.92 in 10.0 mi SE 11.5 mph - N/A   Mostly Cloudy
12:39 AM 69.8 °F - 68.0 °F 94% 29.92 in 10.0 mi SE 9.2 mph - N/A   Scattered Clouds
12:53 AM 70.0 °F - 68.0 °F 93% 29.91 in 10.0 mi SE 9.2 mph - N/A   Scattered Clouds
1:02 AM 71.6 °F - 68.0 °F 88% 29.91 in 10.0 mi SE 10.4 mph - N/A   Mostly Cloudy
1:53 AM 72.0 °F - 69.1 °F 91% 29.90 in 10.0 mi SSE 13.8 mph - N/A   Overcast
2:53 AM 72.0 °F - 69.1 °F 91% 29.90 in 10.0 mi SSE 12.7 mph 23.0 mph N/A   Overcast
3:53 AM 72.0 °F - 69.1 °F 91% 29.88 in 10.0 mi SE 10.4 mph - N/A   Overcast
4:08 AM 71.6 °F - 69.8 °F 94% 29.88 in 10.0 mi SE 9.2 mph - N/A   Overcast
4:26 AM 71.6 °F - 69.8 °F 94% 29.88 in 10.0 mi SSE 10.4 mph - N/A   Overcast
4:53 AM 73.0 °F - 70.0 °F 90% 29.87 in 10.0 mi SSE 10.4 mph - N/A   Overcast
5:29 AM 73.4 °F - 69.8 °F 88% 29.87 in 10.0 mi SSE 9.2 mph - N/A   Overcast
5:53 AM 73.0 °F - 70.0 °F 90% 29.87 in 10.0 mi SSE 9.2 mph - N/A   Overcast
6:53 AM 73.0 °F - 70.0 °F 90% 29.88 in 10.0 mi SSE 9.2 mph - N/A   Overcast
7:53 AM 73.0 °F - 70.0 °F 90% 29.90 in 10.0 mi SSE 10.4 mph 18.4 mph N/A   Mostly Cloudy
8:53 AM 73.9 °F - 70.0 °F 87% 29.92 in 10.0 mi SSE 10.4 mph 17.3 mph N/A   Overcast
9:12 AM 75.2 °F - 69.8 °F 83% 29.93 in 10.0 mi SSE 15.0 mph 18.4 mph N/A   Overcast
9:53 AM 75.9 °F - 70.0 °F 82% 29.93 in 10.0 mi SSE 12.7 mph - N/A   Overcast
10:53 AM 78.1 °F - 71.1 °F 79% 29.94 in 10.0 mi SE 15.0 mph - N/A   Overcast
11:08 AM 78.8 °F - 71.6 °F 78% 29.94 in 10.0 mi SE 13.8 mph - N/A   Overcast
11:30 AM 78.8 °F - 71.6 °F 78% 29.94 in 10.0 mi SSE 15.0 mph - N/A   Overcast
11:39 AM 80.6 °F 84.6 °F 71.6 °F 74% 29.94 in 10.0 mi SSE 12.7 mph - N/A   Overcast
11:53 AM 80.1 °F 83.2 °F 70.0 °F 71% 29.94 in 10.0 mi SE 13.8 mph 20.7 mph N/A   Overcast
12:21 PM 80.6 °F 83.9 °F 69.8 °F 70% 29.93 in 10.0 mi SE 16.1 mph 23.0 mph N/A   Overcast
12:31 PM 80.6 °F 84.6 °F 71.6 °F 74% 29.93 in 10.0 mi SE 16.1 mph 23.0 mph N/A   Overcast
12:53 PM 82.0 °F 86.3 °F 71.1 °F 69% 29.92 in 10.0 mi SSE 18.4 mph - N/A   Overcast
1:53 PM 82.0 °F 86.3 °F 71.1 °F 69% 29.90 in 10.0 mi SE 16.1 mph 25.3 mph N/A   Overcast
2:03 PM 82.4 °F 87.2 °F 71.6 °F 70% 29.90 in 10.0 mi SE 18.4 mph 24.2 mph N/A   Overcast
2:53 PM 82.0 °F 86.3 °F 71.1 °F 69% 29.88 in 10.0 mi SE 19.6 mph 26.5 mph N/A   Overcast
3:53 PM 81.0 °F 84.4 °F 70.0 °F 69% 29.86 in 10.0 mi SE 16.1 mph 25.3 mph N/A   Overcast
4:53 PM 80.1 °F 83.2 °F 70.0 °F 71% 29.84 in 10.0 mi ESE 18.4 mph - N/A   Overcast
5:53 PM 80.1 °F 83.2 °F 70.0 °F 71% 29.83 in 10.0 mi SE 18.4 mph 25.3 mph N/A   Overcast
6:53 PM 80.1 °F 83.2 °F 70.0 °F 71% 29.82 in 10.0 mi SE 18.4 mph 25.3 mph N/A   Overcast
7:53 PM 78.1 °F - 70.0 °F 76% 29.83 in 9.0 mi SE 17.3 mph 25.3 mph N/A   Overcast
8:35 PM 77.0 °F - 69.8 °F 78% 29.85 in 10.0 mi SE 15.0 mph - N/A   Overcast
8:53 PM 77.0 °F - 70.0 °F 79% 29.85 in 10.0 mi SE 16.1 mph - N/A   Overcast
9:53 PM 75.9 °F - 71.1 °F 85% 29.86 in 10.0 mi SE 18.4 mph 23.0 mph N/A   Overcast
10:53 PM 75.9 °F - 71.1 °F 85% 29.87 in 10.0 mi SE 13.8 mph 18.4 mph N/A   Overcast
11:53 PM 75.0 °F - 71.1 °F 87% 29.87 in 10.0 mi SE 11.5 mph 19.6 mph N/A   Overcast